Location: Unspecified
(55.7024°N, 37.6611°E)
Time: 22:59:41
(UTC+03:00)

Explorer 7 - All Passes

Search period start: 17 June 2025 00:00
Search period end: 27 June 2025 00:00
Orbit: 445 x 571 km, 50.3° (Epoch: 17 June)

Date Brightness Start Highest point End Pass type
(mag) Time Alt. Az. Time Alt. Az. Time Alt. Az.
17 Jun - 16:58:54 10° SW 17:01:50 24° SSE 17:04:44 10° ESE daylight
17 Jun - 18:36:53 10° WSW 18:40:09 34° S 18:43:22 10° ESE daylight
17 Jun - 20:15:34 10° WSW 20:18:26 23° SSW 20:21:18 10° SE daylight
18 Jun - 16:39:45 10° SW 16:42:44 24° SSE 16:45:41 10° ESE daylight
18 Jun - 18:17:47 10° WSW 18:21:04 34° S 18:24:17 10° ESE daylight
18 Jun - 19:56:30 10° WSW 19:59:20 23° SSW 20:02:10 10° SSE daylight
19 Jun - 16:20:35 10° SW 16:23:38 25° SSE 16:26:37 10° ESE daylight
19 Jun - 17:58:40 10° WSW 18:01:57 34° S 18:05:11 10° ESE daylight
19 Jun - 19:37:25 10° WSW 19:40:13 22° SSW 19:43:00 10° SSE daylight
20 Jun - 14:25:47 10° SSE 14:26:30 10° SE 14:27:12 10° SE daylight
20 Jun - 16:01:24 10° SW 16:04:30 26° SSE 16:07:31 10° ESE daylight
20 Jun - 17:39:31 10° WSW 17:42:50 34° S 17:46:04 10° ESE daylight
20 Jun - 19:18:18 10° WSW 19:21:05 21° SSW 19:23:50 10° SSE daylight
21 Jun - 14:06:12 10° SSE 14:07:19 11° SE 14:08:25 10° SE daylight
21 Jun - 15:42:12 10° SW 15:45:21 27° SSE 15:48:25 10° ESE daylight
21 Jun - 17:20:23 10° WSW 17:23:41 34° S 17:26:55 10° ESE daylight
21 Jun - 18:59:12 10° WSW 19:01:56 21° SSW 19:04:38 10° SSE daylight
22 Jun - 13:46:43 10° SSE 13:48:08 12° SE 13:49:32 10° ESE daylight
22 Jun - 15:23:00 10° SW 15:26:11 27° SSE 15:29:18 10° ESE daylight
22 Jun - 17:01:13 10° WSW 17:04:31 34° S 17:07:46 10° ESE daylight
22 Jun - 18:40:04 10° WSW 18:42:46 20° SSW 18:45:25 10° SSE daylight
23 Jun - 13:27:17 10° S 13:28:55 12° SSE 13:30:33 10° ESE daylight
23 Jun - 15:03:46 10° SW 15:07:00 28° SSE 15:10:09 10° ESE daylight
23 Jun - 16:42:01 10° WSW 16:45:20 34° S 16:48:36 10° ESE daylight
23 Jun - 18:20:54 10° WSW 18:23:34 20° SSW 18:26:11 10° SSE daylight
24 Jun - 13:07:52 10° S 13:09:42 13° SSE 13:11:31 10° ESE daylight
24 Jun - 14:44:31 10° SW 14:47:47 29° SSE 14:50:59 10° ESE daylight
24 Jun - 16:22:48 10° WSW 16:26:09 34° S 16:29:24 10° ESE daylight
24 Jun - 18:01:45 10° WSW 18:04:21 19° SSW 18:06:56 10° SSE daylight
25 Jun - 12:48:27 10° S 12:50:28 14° SSE 12:52:26 10° ESE daylight
25 Jun - 14:25:16 10° SW 14:28:34 30° SSE 14:31:47 10° ESE daylight
25 Jun - 16:03:35 10° WSW 16:06:56 33° S 16:10:12 10° ESE daylight
25 Jun - 17:42:33 10° WSW 17:45:07 18° SSW 17:47:39 10° SSE daylight
26 Jun - 12:29:02 10° S 12:31:12 15° SSE 12:33:20 10° ESE daylight
26 Jun - 14:05:59 10° SW 14:09:21 30° SSE 14:12:35 10° ESE daylight
26 Jun - 15:44:20 10° WSW 15:47:42 33° S 15:50:58 10° ESE daylight
26 Jun - 17:23:21 10° WSW 17:25:52 18° SSW 17:28:21 10° SSE daylight
